Current weather by "City, St" or "zip code"  
 
Advertise Here

Current Conditions: Cloquet Carlton County Airport, MN

Light Snow


18.0 F

Last Updated on Jan 17 2021, 8:55 pm CST
Humidity: 86%
Wind Speed: W 5.8 mph
Barometer 29.74 in
Dewpoint: 14.0 F
Visibility: 10.00 mi
Precip: --
Heat Index: NA
Wind Chill: 10 F
Current conditions at:

Cloquet Carlton County Airport, MN (KCOQ)

Lat: 46.69869 Lon: 92.5034

Local Radar Image active severe weather and emergency alerts image image weather storm and storm spotter reports image weather observation monitoring service image
Local
Radar
Active
Alerts
Storm Reports Obs
Monitoring

Sign-up For Email & Text Message Weather Alert Notification Services


Advertise Here

Observation History for Cloquet Carlton County Airport, MN


Time Wind
(mph)
Vis
(mi)
Weather Precip (in) Temperature (F) Relative
Humidity
Wind
Chill
(F)
Heat
Index
(F)
Pressure
Air Dwpt altimeter
(in)
sea level
(mb)
Rmks
8:55 pm CST W 5.8 10.00 Light Snow -- 18.0 14.0 86% 10 NA 29.74 M
7:55 pm CST W 4.6 7.00 Light Snow -- 18.0 15.8 93% 11 NA 29.74 M
6:55 pm CST W 8.1 10.00 Overcast -- 19.0 15.8 86% 9 NA 29.75 M
5:55 pm CST W 5.8 10.00 Overcast -- 19.0 15.8 86% 11 NA 29.75 M
4:55 pm CST W 4.6 10.00 Overcast -- 19.0 15.8 86% 12 NA 29.75 M
3:55 pm CST W 6.9 10.00 Overcast -- 19.0 17.6 93% 10 NA 29.74 M
2:55 pm CST W 3.5 10.00 Overcast -- 21.0 17.6 86% NA NA 29.73 M
1:55 pm CST N 0.0 10.00 Overcast -- 21.0 17.6 86% NA NA 29.73 M
12:55 pm CST NW 5.8 10.00 Overcast -- 21.0 17.6 86% 13 NA 29.73 M
11:55 am CST N 3.5 10.00 Overcast -- 21.0 17.6 86% NA NA 29.75 M
10:55 am CST NW 4.6 10.00 Overcast -- 21.0 17.6 86% 15 NA 29.76 M
9:55 am CST NW 6.9 10.00 Overcast -- 21.0 17.6 86% 12 NA 29.76 M
8:55 am CST N 6.9 10.00 Overcast -- 21.0 17.6 86% 12 NA 29.76 M
7:55 am CST N 0.0 10.00 Overcast -- 21.0 19.4 93% NA NA 29.75 M
6:55 am CST NW 3.5 10.00 Overcast -- 21.0 19.4 93% NA NA 29.74 M
5:55 am CST NW 3.5 10.00 Overcast -- 21.0 19.4 93% NA NA 29.73 M
4:55 am CST NW 5.8 10.00 Overcast -- 21.0 19.4 93% 13 NA 29.72 M
3:55 am CST NW 5.8 10.00 Overcast -- 21.0 19.4 93% 13 NA 29.72 M
2:55 am CST NW 6.9 10.00 Overcast -- 21.0 19.4 93% 12 NA 29.73 M
1:55 am CST NW 6.9 10.00 Overcast -- 21.0 19.4 93% 12 NA 29.72 M
12:55 am CST NW 5.8 10.00 Overcast -- 21.0 19.4 93% 13 NA 29.72 M
11:55 pm CST NW 8.1 10.00 Overcast -- 21.0 19.4 93% 11 NA 29.72 M
10:55 pm CST NW 6.9 10.00 Overcast -- 23.0 19.4 86% 15 NA 29.72 M
9:55 pm CST NW 4.6 10.00 Overcast -- 23.0 21.2 93% 17 NA 29.73 M

Regional Weather Observation


Duluth International Airport, MN (KDLH)

Light Snow
50.0 F

Richard I. Bong Airport, WI (KSUW)

Overcast
23.0 F

Duluth - Sky Harbor Airport, MN (KDYT)

Overcast
23.0 F

Moose Lake Carlton County Airport, MN (KMZH)

Overcast
19.0 F

Chisholm-Hibbing Airport, MN (KHIB)

Overcast
17.0 F

Eveleth-Virginia Municipal Airport, MN (KEVM)

Light Snow
18.0 F